Terminal Aerodrome Forecast
Issued by NWS Sterling, VA

Current Version | Previous Version | Graphics & Text | Print | Product List | Glossary On
Versions: 1 2 3 4 5 6 7 8 9 10 11 12 13 14 15 16 17 18 19 20 21
000
FTUS41 KLWX 010135 AAB
TAFMRB
TAF AMD
KMRB 010135Z 0102/0124 22012G25KT 1SM -SHRA VCTS BKN050CB
     FM010600 VRB03KT P6SM SCT080
     FM011400 26008KT P6SM SCT050=

USA.gov is the U.S. government's official web portal to all federal, state and local government web resources and services.